sat.trackr.live / text

‹ back to catalog

STARLINK-31794

NORAD 59803 · 2024-093X

PAYLOAD ACTIVE UNKNOWN

§ Identity

Operator
Country
US
Launch date
2024-05-18
Launch site
AFETR
Launch vehicle
Mass (kg)
RCS (m²)

Purposes: comms

External: N2YO · Heavens-Above · Gunter

§ Orbital elements

Epoch: 2026-05-24T11:35:44.227392Z

Period
94.27 min
Inclination
43.0007°
Eccentricity
0.0001096
Mean motion
15.27579796 rev/d
Perigee alt
482.3 km
Apogee alt
483.8 km
Semi-major
6,861.2 km
B*
5.1512e-5
RAAN
141.1432°
Arg perigee
272.9762°
Mean anomaly
87.0965°
Rev number
11,435

§ Raw data

STARLINK-317941 59803U 24093X   26144.48315078  .00001156  00000+0  51512-4 0  99962 59803  43.0007 141.1432 0001096 272.9762  87.0965 15.27579796114355

JSON: /api/v1/satellites/59803 · /tle

For live sub-satellite position, see the globe view (requires WebGL).

§ Visibility from observer

Set your observer location to see the next 7 days of passes ≥ 10°. The values pass through the URL so the page stays shareable.

No JS? Fill the form by hand. The geolocation button needs JavaScript.